Regional Weather Roundup
Issued by NWS

Home | Current Version | Previous Version | Graphics & Text | Print | Product List | Glossary On
Versions: 1 2 3 4 5 6 7 8 9 10 11 12 13 14 15 16 17 18 19 20 21 22 23 24 25 26 27 28 29 30 31 32 33 34 35 36 37 38 39 40 41 42 43 44 45 46 47 48 49 50
000
ASUS45 KTFX 181219
RWRMT
MONTANA HOURLY WEATHER ROUNDUP
NATIONAL WEATHER SERVICE GREAT FALLS MT
619 AM MDT THU SEP 18 2014

NOTE: "FAIR" INDICATES FEW OR NO CLOUDS BELOW 12000 FEET WITH NO
SIGNIFICANT WEATHER AND/OR OBSTRUCTIONS TO VISIBILITY.

* THESE STATIONS ARE NOT UNDER NWS QUALITY CONTROL. THEY DO NOT
   REPORT WEATHER SUCH AS PRECIPITATION OR FOG.

MTZ001>007-043-181300-
WEST OF THE DIVIDE
CITY           SKY/WX    TMP DP  RH WIND       PRES   REMARKS
KALISPELL      MOCLDY    48  46  93 N3        29.71R
MISSOULA       CLOUDY    55  45  69 CALM      29.74F
BUTTE          CLOUDY    52  39  61 E6        29.90F
MULLAN PASS    CLOUDY    57  39  51 S6        29.86F
* ESSEX        N/A       47  44  89 N/A        N/A
* LINCOLN      N/A       39  37  93 N/A        N/A
* LOOKOUT PASS N/A       55  43  64 SE2G7      N/A
* POLSON       N/A       58  45  62 SE2        N/A
* RONAN APT    CLOUDY    55  46  72 N/A        N/A
* SEELEY LAKE  N/A       44  39  83 E3         N/A
* THOMP F APT  CLOUDY    60  44  56 NE4        N/A
$$

MTZ008-052>055-181300-
SOUTHWEST MONTANA
CITY           SKY/WX    TMP DP  RH WIND       PRES   REMARKS
BOZEMAN        LGT RAIN  61  46  58 E12       29.82F
DILLON         TSTM      52  46  80 W10       29.95R
W YELLOWSTONE  MOCLDY    41  39  93 E3        30.05F
* THREE FORKS  CLOUDY    52  34  50 N/A        N/A
* BOULDER HILL N/A       56  35  45 SW14       N/A
* MONIDA PASS  N/A       60  40  48 SE17       N/A
* RAYNOLDS PAS N/A       55  36  49 SE17       N/A
* WHITEHALL    N/A       52  44  74 N7         N/A
* WISE RIVER   N/A       46  39  77 NW4G11     N/A
$$

MTZ009>010-012-014-046-048-049-054-181300-
EAST SLOPES AND CENTRAL MONTANA
CITY           SKY/WX    TMP DP  RH WIND       PRES   REMARKS
CUT BANK       CLOUDY    55  46  72 W6        29.71F
GREAT FALLS    MOCLDY    63  43  48 S13       29.72S
HELENA         MOCLDY    54  45  72 W5        29.78F
MALMSTROM AFB  MOCLDY    61  45  56 SW5       29.73S
* CONRAD       CLOUDY    55  52  90 N/A        N/A
* EAST GLACIER N/A       50  42  74 W2G9       N/A
* MONARCH      N/A       57  35  44 S11        N/A
* PENDROY      N/A       62  43  50 W5         N/A
* ROGERS PASS  N/A       59  37  44 NW4        N/A
* SAINT MARY   N/A       43  41  93 S4         N/A
* SWEET GRASS  N/A       67  40  37 SW17       N/A
$$

MTZ011-013-016-021-035-040-045-047-050-051-181300-
NORTH CENTRAL MONTANA
CITY           SKY/WX    TMP DP  RH WIND       PRES   REMARKS
HAVRE          MOCLDY    48  46  93 W3        29.65F
LEWISTOWN      MOCLDY    57  43  60 SE6       29.78S
* CHINOOK      MOCLDY    52  48  86 CALM      29.65F
* FORT BENTON  CLOUDY    57  48  72 CALM      29.69F
* CHESTER      N/A       50  45  83 N/A        N/A
* DENTON       N/A       57  44  62 S6         N/A
* JUDITH GAP   N/A       53  49  86 S8         N/A
* LOMA         N/A       57  49  75 NE2        N/A
$$

MTZ017>020-022>027-061-062-181300-
NORTHEAST MONTANA
CITY           SKY/WX    TMP DP  RH WIND       PRES   REMARKS
GLASGOW        PTCLDY    54  48  80 E13       29.67F
GLENDIVE       PTCLDY    52  48  86 S6        29.77F
JORDAN         CLEAR     52  48  86 CALM      29.70F
SIDNEY         CLEAR     52  46  80 S8        29.77F
WOLF POINT     PTCLDY    50  46  86 E6        29.71F
* BEAVER HILL  N/A       57  50  78 SE19       N/A
* CIRCLE       N/A       56  50  80 N/A        N/A
* LINDSAY DVD  N/A       52  49  90 SE5        N/A
* NAVAJO       N/A       50  47  89 SE3        N/A
* SACO         N/A       53  49  86 E6         N/A
$$

MTZ028>042-056>058-181300-
SOUTHCENTRAL AND SOUTHEAST MONTANA
CITY           SKY/WX    TMP DP  RH WIND       PRES   REMARKS
BAKER          PTCLDY    54  50  86 SE9       29.81F
BILLINGS       MOCLDY    64  45  50 W14       29.79S
LIVINGSTON     LGT RAIN  57  45  64 NW8       29.89R
MILES CITY     CLEAR     57  52  83 SE10      29.75F
* LAUREL APT   MOCLDY    63  45  52 N/A        N/A
* ROUNDUP APT  MOCLDY    54  48  80 SW6        N/A
* ALZADA       N/A       51  47  86 E4         N/A
* HYSHAM       N/A       69  43  39 W4         N/A
* LAME DEER    N/A       65  43  45 S4G9       N/A
* REED POINT   N/A       53  49  86 SW7        N/A
* ROSCOE HILL  N/A       66  33  29 W4G9       N/A
$$

REGIONAL REPORTS...DAKOTAS
CITY           SKY/WX    TMP DP  RH WIND       PRES   REMARKS
WILLISTON      CLEAR     55  46  72 SE3       29.78F
DICKINSON      CLEAR     52  46  80 S16       29.82F
BEACH          N/A       52  52 100 SE10      29.80F
CROSBY         CLEAR     54  50  86 S15G20    29.76F
TIOGA          FAIR      52  52 100 S16G23    29.82F
WATFORD CITY   CLEAR     50  46  86 SE9       29.78F
BISMARCK       CLEAR     46  46 100 NE7       29.91F
GRAND FORKS    FOG       36  34  92 CALM      29.99F
FARGO          FOG       45  41  86 E6        29.99F
BUFFALO SD     PTCLDY    54  50  86 SE9       29.80S
RAPID CITY     FOG       50  48  93 CALM      29.87F
$$

REGIONAL REPORTS...WYOMING/IDAHO/WASHINGTON
CITY           SKY/WX    TMP DP  RH WIND       PRES   REMARKS
GILLETTE       PTCLDY    61  48  62 S15       29.90S
SHERIDAN       PTCLDY    54  46  74 N5        29.84F
CODY           MOCLDY   N/A N/A N/A N/A        N/A
YELLOWSTONE LA MOCLDY    43  39  86 CALM      30.16R
SALMON         MOCLDY    54  46  74 N6        29.87R
MULLAN PASS    CLOUDY    57  39  51 S6        29.86S
SAND POINT     PTCLDY    48  48 100 CALM      29.67R
SPOKANE        CLOUDY    63  36  37 S8        29.67R
$$

REGIONAL REPORTS...ALBERTA
CITY           SKY/WX    TMP DP  RH WIND       PRES   REMARKS
CALGARY        MOCLDY    59  45  60 SW6       29.63S
LETHBRIDGE     MOCLDY    55  46  72 CALM      29.63F
MEDICINE HAT   CLEAR     59  50  72 S8        29.59F
EDMONTON       CLOUDY    54  46  74 N8        29.56S
WATERTON GATE  N/A       46  41  83 SW3        N/A
CARDSTON       N/A       57  46  67 SW2        N/A
MILK RIVER     N/A       54  46  74 W7         N/A
$$

REGIONAL REPORTS...SASKATCHEWAN
CITY           SKY/WX    TMP DP  RH WIND       PRES   REMARKS
SWIFT CURRENT  MOCLDY    57  48  72 S17       29.61F
MOOSE JAW      MOCLDY    46  46 100 SE9       29.66F
REGINA         FAIR      46  46 100 SE14      29.71F
VAL MARIE      N/A       46  45  96 E3         N/A
ASSINIBOIA     N/A       50  46  86 SE8        N/A
CORONACH       N/A       48  46  93 SE7        N/A

$$




USA.gov is the U.S. government's official web portal to all federal, state and local government web resources and services.